QPF
0.00 0.00 0.00 0.01 0.01 0.01 0.00 0.00 0.01 0.01 0.01 0.00 0.00 0.01 0.00 0.00 0.00 0.00 0.00 0.00 0.00 0.00 0.00 0.00 0.00 0.00 0.00 0.00 0.00 0.00 0.00 0.00 0.00 0.00 0.00 0.00 0.00 0.00 0.00 0.00 0.00 0.00 0.00 0.00 0.00 0.00 0.00 0.00 0.00
0.00 0.00 0.00 0.00 0.00 0.00 0.00 0.00 0.00 0.01 0.01 0.00 0.00 0.00 0.00 0.00 0.00 0.00 0.00 0.00 0.00 0.00 0.00 0.00 0.00 0.00 0.00 0.00 0.00 0.00 0.00 0.00 0.00 0.00 0.00 0.00 0.00 0.00 0.00 0.00 0.00 0.00 0.00 0.00 0.00 0.00 0.00 0.00 0.00
0.00 0.00 0.00 0.00 0.00 0.00 0.00 0.00 0.00 0.01 0.01 0.01 0.01 0.00 0.00 0.00 0.00 0.00 0.00 0.00 0.00 0.00 0.00 0.00 0.00 0.00 0.00 0.00 0.00 0.00 0.00 0.00 0.00 0.00 0.00 0.00 0.00 0.00 0.00 0.00 0.00 0.00 0.00 0.00 0.00 0.00 0.00 0.00 0.00
0.00 0.00 0.00 0.00 0.00 0.00 0.00 0.00 0.00 0.01 0.01 0.01 0.01 0.00 0.00 0.00 0.00 0.00 0.00 0.00 0.00 0.00 0.00 0.00 0.00 0.00 0.00 0.00 0.00 0.00 0.00 0.00 0.00 0.00 0.00 0.00 0.00 0.00 0.00 0.00 0.00 0.00 0.01 0.01 0.01 0.01 0.01 0.01 0.00
0.00 0.00 0.00 0.00 0.00 0.00 0.00 0.00 0.00 0.01 0.01 0.01 0.00 0.00 0.00 0.00 0.00 0.00 0.00 0.00 0.00 0.00 0.00 0.00 0.00 0.00 0.00 0.00 0.00 0.00 0.00 0.00 0.00 0.00 0.00 0.00 0.00 0.01 0.01 0.01 0.01 0.01 0.01 0.01 0.02 0.02 0.02 0.02 0.01
0.00 0.00 0.00 0.00 0.00 0.00 0.00 0.00 0.01 0.01 0.01 0.00 0.00 0.00 0.00 0.00 0.00 0.01 0.01 0.00 0.00 0.00 0.00 0.00 0.00 0.00 0.00 0.00 0.00 0.00 0.00 0.00 0.00 0.01 0.01 0.01 0.01 0.01 0.01 0.02 0.02 0.01 0.01 0.01 0.02 0.02 0.02 0.02 0.02
0.00 0.00 0.00 0.00 0.00 0.01 0.01 0.00 0.01 0.01 0.00 0.00 0.00 0.00 0.00 0.00 0.01 0.01 0.01 0.00 0.00 0.00 0.00 0.00 0.00 0.00 0.00 0.00 0.00 0.00 0.00 0.00 0.00 0.01 0.01 0.01 0.00 0.01 0.01 0.01 0.02 0.02 0.02 0.01 0.02 0.02 0.02 0.03 0.03
0.00 0.00 0.00 0.00 0.00 0.00 0.01 0.00 0.00 0.00 0.00 0.00 0.00 0.00 0.01 0.01 0.01 0.02 0.01 0.01 0.01 0.00 0.00 0.00 0.00 0.00 0.00 0.00 0.00 0.00 0.01 0.01 0.01 0.01 0.01 0.01 0.01 0.01 0.01 0.01 0.01 0.01 0.03 0.03 0.04 0.04 0.04 0.05 0.04
0.00 0.00 0.00 0.00 0.00 0.00 0.01 0.01 0.00 0.00 0.00 0.00 0.00 0.00 0.01 0.01 0.03 0.03 0.03 0.02 0.02 0.01 0.01 0.02 0.02 0.02 0.01 0.00 0.01 0.02 0.03 0.03 0.03 0.02 0.02 0.01 0.01 0.01 0.01 0.02 0.03 0.04 0.06 0.08 0.07 0.09 0.10 0.10 0.07
0.00 0.00 0.00 0.00 0.00 0.00 0.01 0.01 0.01 0.01 0.01 0.00 0.00 0.00 0.01 0.03 0.06 0.05 0.05 0.04 0.04 0.04 0.07 0.08 0.09 0.07 0.05 0.04 0.05 0.06 0.07 0.08 0.07 0.06 0.04 0.03 0.02 0.02 0.02 0.03 0.06 0.08 0.10 0.13 0.15 0.18 0.18 0.16 0.09
0.00 0.00 0.00 0.00 0.00 0.00 0.00 0.01 0.01 0.02 0.02 0.01 0.01 0.02 0.03 0.06 0.08 0.09 0.09 0.11 0.11 0.11 0.10 0.11 0.14 0.15 0.15 0.15 0.16 0.14 0.14 0.16 0.20 0.18 0.12 0.08 0.05 0.04 0.04 0.04 0.05 0.06 0.10 0.10 0.13 0.19 0.18 0.18 0.14
0.00 0.00 0.00 0.00 0.00 0.00 0.00 0.01 0.01 0.02 0.03 0.03 0.04 0.05 0.07 0.09 0.13 0.14 0.16 0.16 0.15 0.13 0.15 0.17 0.21 0.24 0.24 0.24 0.21 0.20 0.19 0.21 0.20 0.18 0.16 0.12 0.09 0.07 0.06 0.05 0.05 0.05 0.06 0.07 0.08 0.08 0.13 0.17 0.18
0.00 0.00 0.00 0.00 0.00 0.00 0.00 0.01 0.02 0.03 0.04 0.05 0.07 0.07 0.08 0.10 0.14 0.16 0.17 0.16 0.17 0.18 0.20 0.21 0.22 0.25 0.23 0.23 0.22 0.23 0.21 0.18 0.12 0.11 0.12 0.10 0.09 0.08 0.06 0.04 0.03 0.03 0.04 0.03 0.04 0.06 0.09 0.12 0.15
0.00 0.00 0.00 0.00 0.00 0.00 0.01 0.01 0.02 0.03 0.04 0.05 0.06 0.07 0.08 0.11 0.14 0.15 0.16 0.18 0.18 0.18 0.19 0.19 0.19 0.20 0.16 0.15 0.15 0.13 0.09 0.09 0.08 0.08 0.07 0.04 0.04 0.04 0.04 0.03 0.02 0.03 0.03 0.02 0.02 0.02 0.04 0.07 0.09
0.00 0.00 0.00 0.01 0.01 0.01 0.01 0.02 0.03 0.03 0.04 0.05 0.07 0.08 0.10 0.12 0.13 0.15 0.14 0.14 0.14 0.15 0.14 0.14 0.15 0.13 0.10 0.07 0.05 0.04 0.04 0.03 0.03 0.02 0.01 0.01 0.01 0.02 0.02 0.02 0.02 0.02 0.01 0.01 0.00 0.00 0.01 0.02 0.04
0.00 0.00 0.00 0.01 0.01 0.01 0.01 0.02 0.03 0.04 0.04 0.06 0.08 0.10 0.11 0.11 0.12 0.12 0.12 0.11 0.09 0.09 0.09 0.09 0.07 0.06 0.03 0.02 0.02 0.01 0.01 0.01 0.01 0.00 0.00 0.00 0.01 0.01 0.01 0.01 0.01 0.00 0.00 0.00 0.00 0.00 0.00 0.01 0.02
0.00 0.00 0.00 0.00 0.00 0.00 0.01 0.03 0.04 0.05 0.05 0.07 0.09 0.09 0.09 0.08 0.08 0.07 0.06 0.05 0.05 0.05 0.04 0.04 0.03 0.02 0.01 0.01 0.01 0.00 0.00 0.00 0.00 0.00 0.00 0.00 0.00 0.00 0.00 0.00 0.00 0.00 0.00 0.00 0.00 0.00 0.00 0.01 0.02
0.00 0.00 0.00 0.00 0.00 0.00 0.01 0.03 0.05 0.06 0.07 0.10 0.12 0.08 0.07 0.05 0.04 0.03 0.02 0.02 0.02 0.02 0.02 0.01 0.01 0.00 0.00 0.00 0.00 0.00 0.00 0.00 0.00 0.00 0.00 0.00 0.00 0.00 0.00 0.00 0.00 0.00 0.00 0.00 0.00 0.00 0.00 0.00 0.02
0.00 0.00 0.00 0.00 0.00 0.00 0.01 0.02 0.04 0.06 0.08 0.09 0.09 0.06 0.05 0.03 0.03 0.02 0.01 0.01 0.01 0.01 0.00 0.00 0.00 0.00 0.00 0.00 0.00 0.00 0.00 0.00 0.00 0.00 0.00 0.00 0.00 0.00 0.00 0.00 0.00 0.00 0.00 0.00 0.00 0.00 0.00 0.00 0.02
0.01 0.01 0.01 0.00 0.00 0.01 0.01 0.03 0.04 0.05 0.06 0.06 0.07 0.06 0.03 0.02 0.02 0.01 0.00 0.01 0.00 0.00 0.00 0.00 0.00 0.00 0.00 0.00 0.00 0.00 0.00 0.00 0.00 0.00 0.00 0.00 0.00 0.00 0.00 0.00 0.00 0.00 0.00 0.00 0.00 0.00 0.00 0.00 0.02
0.01 0.01 0.01 0.01 0.01 0.01 0.01 0.02 0.03 0.03 0.03 0.04 0.05 0.06 0.03 0.02 0.01 0.01 0.00 0.00 0.00 0.00 0.00 0.00 0.00 0.00 0.00 0.00 0.00 0.00 0.00 0.00 0.00 0.00 0.00 0.00 0.00 0.00 0.00 0.00 0.00 0.00 0.00 0.00 0.00 0.00 0.00 0.00 0.01
0.01 0.01 0.01 0.01 0.01 0.01 0.01 0.01 0.01 0.02 0.03 0.02 0.03 0.03 0.02 0.01 0.00 0.00 0.00 0.00 0.00 0.00 0.00 0.00 0.00 0.00 0.00 0.00 0.00 0.00 0.00 0.00 0.00 0.00 0.00 0.00 0.00 0.00 0.00 0.00 0.00 0.00 0.00 0.00 0.00 0.00 0.00 0.00 0.01
0.01 0.01 0.01 0.01 0.01 0.01 0.00 0.00 0.00 0.00 0.01 0.01 0.01 0.01 0.01 0.00 0.00 0.00 0.00 0.00 0.00 0.00 0.00 0.00 0.00 0.00 0.00 0.00 0.00 0.00 0.00 0.00 0.00 0.00 0.00 0.00 0.00 0.00 0.00 0.00 0.00 0.00 0.00 0.00 0.00 0.00 0.00 0.00 0.00
0.00 0.01 0.01 0.02 0.01 0.01 0.00 0.00 0.00 0.00 0.00 0.00 0.00 0.00 0.00 0.00 0.00 0.00 0.00 0.00 0.00 0.00 0.00 0.00 0.00 0.00 0.00 0.00 0.00 0.00 0.00 0.00 0.00 0.00 0.00 0.00 0.00 0.00 0.00 0.00 0.00 0.00 0.00 0.00 0.00 0.00 0.00 0.00 0.00
0.00 0.01 0.01 0.01 0.01 0.00 0.00 0.00 0.00 0.00 0.00 0.00 0.00 0.00 0.00 0.00 0.00 0.00 0.00 0.00 0.00 0.00 0.00 0.00 0.00 0.00 0.00 0.00 0.00 0.00 0.00 0.00 0.00 0.00 0.00 0.00 0.00 0.00 0.00 0.00 0.00 0.00 0.00 0.00 0.00 0.00 0.00 0.00 0.00
0.01 0.01 0.00 0.00 0.00 0.00 0.00 0.00 0.00 0.00 0.00 0.00 0.00 0.00 0.00 0.00 0.00 0.00 0.00 0.00 0.00 0.00 0.00 0.00 0.00 0.00 0.00 0.00 0.00 0.00 0.00 0.00 0.00 0.00 0.00 0.00 0.00 0.00 0.00 0.00 0.00 0.00 0.00 0.00 0.00 0.00 0.00 0.00 0.00
0.00 0.00 0.00 0.00 0.00 0.00 0.00 0.00 0.00 0.00 0.00 0.00 0.00 0.00 0.00 0.00 0.00 0.00 0.00 0.00 0.00 0.00 0.00 0.00 0.00 0.00 0.00 0.00 0.00 0.00 0.00 0.00 0.00 0.00 0.00 0.00 0.00 0.00 0.00 0.00 0.00 0.00 0.00 0.00 0.00 0.00 0.00 0.00 0.00
0.00 0.00 0.00 0.00 0.00 0.00 0.00 0.00 0.00 0.00 0.00 0.00 0.00 0.00 0.00 0.00 0.00 0.00 0.00 0.00 0.00 0.00 0.00 0.00 0.00 0.00 0.00 0.00 0.00 0.00 0.00 0.00 0.00 0.00 0.00 0.00 0.00 0.00 0.00 0.00 0.00 0.00 0.00 0.00 0.00 0.00 0.00 0.00 0.00
0.00 0.00 0.00 0.00 0.00 0.00 0.00 0.00 0.00 0.00 0.00 0.00 0.00 0.00 0.00 0.00 0.00 0.00 0.00 0.00 0.00 0.00 0.00 0.00 0.00 0.00 0.00 0.00 0.00 0.00 0.00 0.00 0.00 0.00 0.00 0.00 0.00 0.00 0.00 0.00 0.00 0.00 0.00 0.00 0.00 0.00 0.00 0.00 0.00
0.00 0.00 0.00 0.00 0.00 0.00 0.00 0.00 0.00 0.00 0.00 0.00 0.00 0.00 0.00 0.00 0.00 0.00 0.00 0.00 0.00 0.00 0.00 0.00 0.00 0.00 0.00 0.00 0.00 0.00 0.00 0.00 0.00 0.00 0.00 0.00 0.00 0.00 0.00 0.00 0.00 0.00 0.00 0.00 0.00 0.00 0.00 0.00 0.00
MSLP
1012.67 1013.91 1015.13 1016.13 1016.73 1016.86 1016.50 1015.73 1014.70 1013.61 1012.64 1011.94 1011.58 1011.54 1011.75 1012.08 1012.43 1012.68 1012.78 1012.75 1012.63 1012.49 1012.39 1012.39 1012.50 1012.69 1012.94 1013.19 1013.41 1013.57 1013.70 1013.80 1013.92 1014.09 1014.31 1014.59 1014.89 1015.19 1015.46 1015.66 1015.80 1015.88 1015.93 1015.97 1016.02 1016.09 1016.18 1016.29 1016.39
1013.39 1014.72 1015.92 1016.78 1017.16 1017.00 1016.33 1015.26 1014.00 1012.76 1011.73 1011.04 1010.75 1010.82 1011.15 1011.60 1012.03 1012.35 1012.51 1012.52 1012.43 1012.32 1012.27 1012.31 1012.48 1012.74 1013.05 1013.36 1013.64 1013.86 1014.02 1014.17 1014.31 1014.49 1014.70 1014.94 1015.20 1015.43 1015.62 1015.75 1015.83 1015.88 1015.91 1015.95 1016.02 1016.13 1016.26 1016.40 1016.54
1014.18 1015.50 1016.59 1017.24 1017.36 1016.91 1015.96 1014.68 1013.28 1011.98 1010.98 1010.38 1010.20 1010.39 1010.83 1011.36 1011.84 1012.18 1012.34 1012.35 1012.28 1012.20 1012.19 1012.29 1012.52 1012.85 1013.22 1013.59 1013.91 1014.17 1014.36 1014.52 1014.66 1014.82 1015.00 1015.20 1015.39 1015.55 1015.67 1015.73 1015.76 1015.78 1015.80 1015.85 1015.95 1016.10 1016.27 1016.46 1016.63
1014.92 1016.15 1017.05 1017.46 1017.31 1016.60 1015.45 1014.05 1012.62 1011.37 1010.49 1010.03 1010.01 1010.33 1010.84 1011.41 1011.89 1012.21 1012.34 1012.32 1012.24 1012.18 1012.21 1012.37 1012.67 1013.05 1013.48 1013.88 1014.22 1014.48 1014.67 1014.81 1014.93 1015.06 1015.19 1015.34 1015.47 1015.57 1015.63 1015.65 1015.64 1015.64 1015.66 1015.74 1015.86 1016.04 1016.25 1016.47 1016.68
1015.52 1016.58 1017.26 1017.41 1017.02 1016.13 1014.87 1013.46 1012.11 1011.01 1010.32 1010.06 1010.19 1010.62 1011.19 1011.75 1012.18 1012.43 1012.50 1012.45 1012.36 1012.32 1012.39 1012.60 1012.94 1013.37 1013.80 1014.20 1014.53 1014.76 1014.91 1015.02 1015.10 1015.18 1015.28 1015.38 1015.47 1015.53 1015.56 1015.55 1015.54 1015.53 1015.56 1015.65 1015.80 1016.00 1016.24 1016.47 1016.69
1015.91 1016.77 1017.20 1017.13 1016.55 1015.55 1014.30 1012.98 1011.80 1010.93 1010.47 1010.41 1010.70 1011.21 1011.79 1012.30 1012.66 1012.83 1012.83 1012.73 1012.64 1012.61 1012.72 1012.97 1013.34 1013.76 1014.18 1014.54 1014.81 1014.98 1015.07 1015.12 1015.16 1015.21 1015.29 1015.37 1015.44 1015.49 1015.51 1015.50 1015.49 1015.49 1015.53 1015.63 1015.79 1015.99 1016.22 1016.45 1016.67
1016.07 1016.71 1016.93 1016.67 1015.99 1014.98 1013.81 1012.67 1011.73 1011.12 1010.90 1011.03 1011.43 1011.98 1012.53 1012.97 1013.23 1013.31 1013.25 1013.13 1013.04 1013.04 1013.19 1013.46 1013.82 1014.22 1014.58 1014.86 1015.04 1015.13 1015.15 1015.15 1015.15 1015.19 1015.26 1015.35 1015.43 1015.49 1015.52 1015.52 1015.51 1015.52 1015.56 1015.66 1015.81 1016.00 1016.21 1016.41 1016.60
1016.02 1016.47 1016.51 1016.14 1015.42 1014.48 1013.47 1012.56 1011.88 1011.52 1011.51 1011.79 1012.25 1012.79 1013.28 1013.63 1013.80 1013.80 1013.71 1013.58 1013.52 1013.56 1013.73 1014.01 1014.35 1014.69 1014.96 1015.14 1015.22 1015.22 1015.17 1015.12 1015.11 1015.15 1015.24 1015.35 1015.46 1015.54 1015.58 1015.59 1015.59 1015.59 1015.63 1015.71 1015.84 1015.99 1016.16 1016.32 1016.47
1015.82 1016.10 1016.02 1015.60 1014.93 1014.11 1013.31 1012.63 1012.20 1012.06 1012.21 1012.57 1013.05 1013.53 1013.93 1014.19 1014.28 1014.24 1014.14 1014.04 1014.02 1014.11 1014.30 1014.57 1014.87 1015.13 1015.30 1015.38 1015.35 1015.27 1015.17 1015.10 1015.09 1015.14 1015.26 1015.40 1015.53 1015.63 1015.68 1015.69 1015.67 1015.66 1015.68 1015.73 1015.82 1015.94 1016.06 1016.17 1016.27
1015.51 1015.69 1015.55 1015.15 1014.56 1013.92 1013.32 1012.88 1012.65 1012.68 1012.91 1013.29 1013.73 1014.13 1014.43 1014.60 1014.64 1014.59 1014.51 1014.47 1014.50 1014.64 1014.85 1015.11 1015.34 1015.52 1015.59 1015.56 1015.46 1015.31 1015.18 1015.10 1015.10 1015.19 1015.33 1015.49 1015.63 1015.73 1015.77 1015.76 1015.72 1015.68 1015.67 1015.68 1015.74 1015.81 1015.89 1015.95 1016.00
1015.19 1015.30 1015.15 1014.81 1014.36 1013.89 1013.50 1013.25 1013.19 1013.31 1013.57 1013.91 1014.27 1014.57 1014.77 1014.87 1014.88 1014.85 1014.82 1014.84 1014.95 1015.12 1015.34 1015.57 1015.75 1015.83 1015.82 1015.72 1015.55 1015.37 1015.23 1015.16 1015.19 1015.29 1015.44 1015.61 1015.74 1015.81 1015.82 1015.77 1015.70 1015.62 1015.57 1015.56 1015.58 1015.61 1015.65 1015.68 1015.68
1014.90 1014.99 1014.87 1014.63 1014.32 1014.03 1013.82 1013.72 1013.76 1013.92 1014.16 1014.43 1014.68 1014.88 1015.00 1015.05 1015.06 1015.06 1015.09 1015.18 1015.34 1015.54 1015.75 1015.94 1016.06 1016.08 1016.00 1015.84 1015.65 1015.47 1015.34 1015.29 1015.34 1015.45 1015.59 1015.73 1015.82 1015.85 1015.80 1015.71 1015.59 1015.48 1015.41 1015.37 1015.36 1015.38 1015.39 1015.38 1015.34
1014.71 1014.79 1014.73 1014.59 1014.43 1014.29 1014.23 1014.24 1014.34 1014.49 1014.68 1014.86 1015.01 1015.11 1015.17 1015.20 1015.22 1015.26 1015.35 1015.49 1015.68 1015.88 1016.07 1016.21 1016.27 1016.24 1016.13 1015.96 1015.77 1015.61 1015.51 1015.49 1015.54 1015.64 1015.75 1015.83 1015.86 1015.82 1015.72 1015.58 1015.43 1015.29 1015.20 1015.15 1015.14 1015.14 1015.13 1015.09 1015.01
1014.64 1014.73 1014.73 1014.69 1014.65 1014.65 1014.69 1014.78 1014.90 1015.03 1015.15 1015.24 1015.30 1015.34 1015.35 1015.37 1015.42 1015.50 1015.62 1015.79 1015.97 1016.15 1016.30 1016.39 1016.40 1016.34 1016.22 1016.07 1015.93 1015.81 1015.75 1015.75 1015.79 1015.85 1015.89 1015.90 1015.85 1015.74 1015.58 1015.40 1015.23 1015.10 1015.01 1014.97 1014.96 1014.95 1014.91 1014.84 1014.71
1014.70 1014.79 1014.84 1014.88 1014.95 1015.05 1015.17 1015.30 1015.42 1015.52 1015.57 1015.59 1015.59 1015.58 1015.58 1015.60 1015.67 1015.77 1015.91 1016.07 1016.22 1016.35 1016.44 1016.48 1016.46 1016.39 1016.30 1016.20 1016.11 1016.05 1016.03 1016.03 1016.05 1016.05 1016.02 1015.94 1015.80 1015.62 1015.42 1015.22 1015.06 1014.94 1014.87 1014.84 1014.83 1014.81 1014.75 1014.63 1014.43
1014.85 1014.94 1015.02 1015.14 1015.29 1015.47 1015.65 1015.80 1015.91 1015.96 1015.96 1015.92 1015.87 1015.84 1015.83 1015.87 1015.95 1016.06 1016.18 1016.31 1016.41 1016.47 1016.50 1016.49 1016.45 1016.41 1016.36 1016.33 1016.32 1016.32 1016.33 1016.34 1016.31 1016.24 1016.12 1015.94 1015.73 1015.50 1015.27 1015.08 1014.93 1014.84 1014.81 1014.80 1014.79 1014.74 1014.64 1014.45 1014.19
1015.03 1015.12 1015.25 1015.43 1015.66 1015.89 1016.11 1016.26 1016.35 1016.35 1016.29 1016.21 1016.12 1016.07 1016.06 1016.11 1016.20 1016.31 1016.41 1016.48 1016.52 1016.52 1016.49 1016.45 1016.41 1016.40 1016.42 1016.47 1016.54 1016.61 1016.64 1016.63 1016.55 1016.40 1016.19 1015.93 1015.65 1015.38 1015.15 1014.98 1014.87 1014.82 1014.81 1014.81 1014.79 1014.71 1014.55 1014.30 1013.96
1015.18 1015.30 1015.49 1015.74 1016.04 1016.32 1016.56 1016.70 1016.74 1016.68 1016.56 1016.41 1016.29 1016.21 1016.21 1016.26 1016.36 1016.45 1016.53 1016.56 1016.54 1016.48 1016.41 1016.35 1016.33 1016.38 1016.47 1016.61 1016.76 1016.88 1016.93 1016.90 1016.77 1016.54 1016.25 1015.92 1015.59 1015.30 1015.08 1014.94 1014.87 1014.86 1014.87 1014.87 1014.82 1014.69 1014.46 1014.14 1013.73
1015.25 1015.44 1015.72 1016.07 1016.45 1016.78 1017.02 1017.13 1017.10 1016.95 1016.73 1016.51 1016.33 1016.22 1016.20 1016.26 1016.35 1016.45 1016.50 1016.50 1016.45 1016.36 1016.27 1016.21 1016.24 1016.34 1016.51 1016.73 1016.95 1017.11 1017.18 1017.13 1016.94 1016.66 1016.29 1015.91 1015.55 1015.26 1015.05 1014.94 1014.91 1014.92 1014.94 1014.92 1014.83 1014.65 1014.36 1013.97 1013.50
1015.23 1015.54 1015.96 1016.44 1016.91 1017.29 1017.52 1017.57 1017.44 1017.17 1016.83 1016.49 1016.22 1016.06 1016.01 1016.06 1016.16 1016.27 1016.32 1016.32 1016.26 1016.17 1016.08 1016.05 1016.12 1016.28 1016.52 1016.81 1017.08 1017.28 1017.36 1017.29 1017.07 1016.73 1016.33 1015.92 1015.54 1015.26 1015.07 1014.99 1014.98 1015.00 1015.00 1014.95 1014.82 1014.58 1014.23 1013.80 1013.31
1015.13 1015.62 1016.22 1016.86 1017.44 1017.87 1018.09 1018.05 1017.79 1017.36 1016.85 1016.37 1015.98 1015.73 1015.64 1015.68 1015.79 1015.92 1016.01 1016.03 1016.00 1015.93 1015.87 1015.88 1015.98 1016.19 1016.49 1016.82 1017.13 1017.35 1017.44 1017.36 1017.13 1016.78 1016.36 1015.94 1015.57 1015.29 1015.13 1015.05 1015.05 1015.06 1015.04 1014.95 1014.77 1014.49 1014.11 1013.67 1013.18
1015.02 1015.73 1016.55 1017.37 1018.07 1018.55 1018.73 1018.59 1018.17 1017.54 1016.84 1016.17 1015.63 1015.29 1015.14 1015.17 1015.30 1015.47 1015.61 1015.69 1015.71 1015.68 1015.67 1015.70 1015.84 1016.08 1016.40 1016.75 1017.08 1017.32 1017.42 1017.35 1017.12 1016.78 1016.37 1015.97 1015.62 1015.36 1015.20 1015.13 1015.11 1015.10 1015.04 1014.92 1014.70 1014.40 1014.01 1013.59 1013.14
1014.96 1015.91 1016.95 1017.95 1018.77 1019.28 1019.41 1019.15 1018.55 1017.72 1016.80 1015.94 1015.25 1014.79 1014.59 1014.60 1014.77 1014.99 1015.20 1015.35 1015.43 1015.46 1015.48 1015.55 1015.69 1015.93 1016.25 1016.60 1016.93 1017.17 1017.28 1017.23 1017.04 1016.73 1016.36 1015.99 1015.67 1015.43 1015.28 1015.21 1015.17 1015.12 1015.03 1014.87 1014.63 1014.32 1013.96 1013.57 1013.19
1015.01 1016.17 1017.42 1018.57 1019.48 1020.00 1020.07 1019.68 1018.91 1017.88 1016.76 1015.71 1014.87 1014.32 1014.07 1014.08 1014.28 1014.57 1014.86 1015.08 1015.23 1015.31 1015.36 1015.42 1015.55 1015.76 1016.05 1016.37 1016.67 1016.91 1017.04 1017.02 1016.87 1016.62 1016.31 1015.99 1015.71 1015.50 1015.36 1015.26 1015.19 1015.11 1014.99 1014.80 1014.56 1014.26 1013.94 1013.62 1013.31
1015.19 1016.52 1017.91 1019.16 1020.12 1020.62 1020.62 1020.11 1019.18 1017.97 1016.68 1015.50 1014.55 1013.92 1013.64 1013.66 1013.91 1014.26 1014.63 1014.92 1015.13 1015.24 1015.30 1015.34 1015.43 1015.59 1015.81 1016.08 1016.35 1016.57 1016.70 1016.72 1016.63 1016.45 1016.21 1015.95 1015.72 1015.53 1015.39 1015.28 1015.18 1015.06 1014.91 1014.71 1014.47 1014.21 1013.94 1013.68 1013.45
1015.47 1016.89 1018.34 1019.63 1020.57 1021.03 1020.94 1020.32 1019.27 1017.95 1016.56 1015.29 1014.28 1013.63 1013.35 1013.40 1013.69 1014.11 1014.54 1014.89 1015.13 1015.26 1015.30 1015.31 1015.33 1015.41 1015.56 1015.75 1015.97 1016.17 1016.30 1016.36 1016.32 1016.20 1016.03 1015.84 1015.65 1015.49 1015.35 1015.22 1015.10 1014.95 1014.78 1014.58 1014.35 1014.11 1013.89 1013.70 1013.53
1015.78 1017.19 1018.61 1019.85 1020.73 1021.11 1020.94 1020.24 1019.13 1017.76 1016.34 1015.06 1014.06 1013.43 1013.19 1013.29 1013.64 1014.10 1014.57 1014.96 1015.22 1015.34 1015.35 1015.30 1015.26 1015.25 1015.30 1015.42 1015.57 1015.73 1015.86 1015.94 1015.94 1015.88 1015.77 1015.63 1015.49 1015.34 1015.20 1015.06 1014.92 1014.75 1014.57 1014.36 1014.15 1013.94 1013.76 1013.61 1013.49
1016.04 1017.35 1018.65 1019.77 1020.52 1020.80 1020.56 1019.83 1018.71 1017.37 1016.00 1014.79 1013.87 1013.32 1013.15 1013.31 1013.70 1014.20 1014.69 1015.09 1015.34 1015.44 1015.41 1015.31 1015.18 1015.09 1015.05 1015.09 1015.17 1015.29 1015.40 1015.48 1015.51 1015.49 1015.42 1015.32 1015.20 1015.07 1014.93 1014.79 1014.62 1014.45 1014.25 1014.05 1013.84 1013.66 1013.50 1013.37 1013.28
1016.15 1017.29 1018.41 1019.33 1019.93 1020.10 1019.80 1019.07 1018.01 1016.78 1015.54 1014.48 1013.69 1013.26 1013.18 1013.40 1013.83 1014.34 1014.83 1015.21 1015.44 1015.51 1015.44 1015.28 1015.09 1014.92 1014.81 1014.77 1014.79 1014.85 1014.93 1014.99 1015.03 1015.02 1014.98 1014.90 1014.79 1014.67 1014.53 1014.38 1014.20 1014.02 1013.82 1013.61 1013.42 1013.24 1013.09 1012.97 1012.88
1016.09 1017.01 1017.89 1018.60 1019.02 1019.08 1018.74 1018.05 1017.10 1016.03 1014.99 1014.12 1013.51 1013.22 1013.23 1013.51 1013.95 1014.45 1014.92 1015.26 1015.45 1015.48 1015.37 1015.17 1014.94 1014.72 1014.56 1014.46 1014.42 1014.43 1014.46 1014.50 1014.51 1014.50 1014.46 1014.38 1014.28 1014.16 1014.02 1013.86 1013.68 1013.49 1013.29 1013.08 1012.89 1012.71 1012.56 1012.44 1012.34
Thickness
5813 5810 5806 5795 5776 5763 5764 5783 5801 5811 5817 5829 5833 5827 5816 5807 5800 5794 5811 5818 5815 5809 5804 5799 5795 5792 5789 5786 5785 5783 5781 5779 5778 5776 5775 5774 5772 5771 5769 5767 5766 5765 5763 5762 5761 5760 5759 5758 5756
5811 5807 5798 5783 5764 5755 5771 5797 5807 5817 5826 5833 5832 5825 5815 5809 5813 5811 5813 5815 5814 5808 5802 5798 5794 5790 5787 5785 5783 5781 5779 5777 5775 5773 5772 5770 5769 5768 5766 5765 5764 5762 5761 5760 5758 5757 5756 5755 5754
5809 5804 5785 5769 5758 5757 5776 5804 5814 5825 5833 5830 5823 5822 5814 5808 5813 5813 5816 5815 5811 5805 5800 5795 5791 5788 5785 5782 5781 5779 5777 5774 5772 5770 5769 5767 5766 5764 5763 5762 5761 5760 5758 5757 5756 5755 5753 5752 5751
5804 5790 5777 5761 5757 5771 5788 5807 5819 5820 5825 5826 5819 5809 5812 5817 5818 5817 5816 5813 5807 5801 5797 5792 5788 5785 5782 5779 5777 5775 5773 5771 5770 5768 5766 5764 5763 5761 5760 5759 5757 5756 5755 5754 5753 5751 5750 5749 5748
5798 5779 5762 5752 5760 5781 5800 5813 5820 5815 5814 5816 5814 5800 5798 5810 5816 5814 5811 5807 5802 5797 5793 5789 5785 5782 5778 5776 5774 5772 5770 5768 5767 5765 5763 5762 5760 5758 5757 5756 5754 5753 5752 5751 5749 5748 5747 5745 5744
5782 5769 5751 5746 5762 5787 5802 5813 5816 5812 5810 5812 5806 5795 5791 5803 5805 5805 5804 5800 5797 5792 5788 5785 5781 5778 5775 5773 5771 5769 5767 5765 5764 5762 5760 5759 5757 5756 5755 5753 5752 5750 5749 5748 5746 5745 5743 5742 5741
5773 5759 5751 5755 5761 5777 5796 5809 5805 5802 5800 5802 5805 5788 5788 5795 5798 5799 5797 5793 5790 5786 5783 5780 5777 5774 5771 5769 5767 5765 5764 5762 5760 5759 5757 5756 5755 5754 5752 5751 5750 5748 5746 5745 5743 5742 5740 5739 5737
5779 5759 5754 5752 5760 5772 5791 5801 5803 5797 5794 5804 5803 5785 5781 5789 5793 5792 5789 5785 5782 5779 5776 5774 5772 5770 5767 5765 5763 5762 5760 5758 5757 5755 5754 5753 5752 5751 5749 5748 5746 5745 5744 5742 5741 5739 5737 5736 5735
5778 5750 5742 5753 5763 5773 5788 5789 5794 5797 5792 5792 5794 5791 5791 5791 5787 5783 5779 5775 5773 5771 5769 5767 5765 5763 5761 5760 5758 5757 5755 5754 5752 5751 5750 5749 5748 5747 5746 5745 5743 5742 5741 5740 5738 5737 5735 5734 5732
5762 5741 5751 5767 5775 5778 5782 5781 5784 5781 5777 5776 5780 5784 5786 5782 5778 5772 5768 5765 5763 5762 5762 5761 5759 5757 5756 5755 5753 5752 5750 5748 5747 5745 5745 5745 5744 5743 5741 5741 5739 5738 5738 5737 5736 5734 5733 5731 5730
5758 5750 5762 5771 5778 5780 5775 5773 5777 5771 5761 5765 5767 5770 5773 5771 5767 5764 5761 5759 5757 5756 5755 5755 5753 5752 5750 5748 5747 5745 5743 5742 5741 5741 5740 5739 5739 5738 5737 5736 5735 5734 5733 5733 5732 5731 5730 5729 5727
5754 5758 5765 5770 5777 5776 5771 5768 5762 5761 5758 5765 5767 5767 5765 5761 5757 5755 5752 5750 5749 5748 5747 5747 5746 5744 5742 5741 5739 5737 5736 5735 5735 5736 5735 5735 5734 5733 5732 5731 5730 5729 5728 5727 5727 5726 5726 5726 5725
5752 5756 5762 5765 5768 5767 5765 5758 5755 5750 5757 5761 5761 5758 5755 5752 5749 5747 5746 5744 5742 5740 5740 5740 5739 5737 5735 5734 5733 5731 5730 5728 5729 5729 5730 5730 5729 5728 5727 5726 5724 5723 5722 5721 5721 5721 5721 5721 5721
5753 5753 5755 5758 5760 5759 5753 5748 5748 5743 5751 5751 5750 5748 5747 5744 5742 5740 5738 5735 5734 5734 5734 5734 5732 5731 5731 5728 5726 5725 5724 5723 5724 5723 5723 5723 5723 5723 5722 5720 5719 5717 5716 5715 5715 5715 5715 5716 5716
5755 5746 5746 5750 5752 5751 5750 5735 5736 5743 5746 5742 5741 5741 5740 5738 5736 5733 5731 5730 5729 5729 5729 5729 5728 5727 5725 5723 5721 5720 5719 5718 5717 5717 5717 5717 5716 5716 5715 5713 5712 5711 5710 5709 5709 5709 5709 5710 5711
5747 5735 5727 5741 5747 5748 5741 5721 5733 5739 5738 5733 5734 5734 5732 5731 5730 5729 5728 5726 5725 5724 5723 5723 5723 5721 5719 5717 5715 5714 5712 5711 5710 5709 5709 5709 5708 5707 5707 5705 5704 5703 5703 5702 5702 5702 5702 5703 5704
5728 5721 5723 5733 5743 5743 5734 5721 5729 5733 5731 5727 5727 5725 5725 5725 5725 5724 5723 5723 5721 5719 5718 5716 5716 5714 5712 5710 5708 5707 5705 5703 5702 5701 5701 5700 5700 5700 5698 5697 5696 5696 5695 5695 5694 5695 5695 5696 5698
5722 5724 5725 5727 5735 5733 5723 5718 5723 5725 5724 5721 5720 5719 5718 5719 5721 5722 5721 5719 5717 5714 5712 5710 5709 5707 5705 5703 5701 5699 5697 5695 5694 5693 5692 5692 5692 5691 5690 5689 5688 5688 5687 5687 5687 5687 5688 5689 5691
5737 5730 5725 5727 5734 5725 5716 5713 5715 5718 5715 5711 5710 5712 5713 5715 5720 5720 5718 5716 5713 5710 5707 5705 5702 5700 5698 5695 5692 5689 5687 5685 5685 5685 5684 5683 5683 5683 5682 5681 5681 5680 5679 5679 5679 5679 5680 5681 5683
5738 5729 5724 5724 5730 5721 5711 5709 5711 5711 5709 5707 5707 5709 5711 5713 5715 5716 5715 5714 5711 5707 5703 5700 5698 5695 5693 5689 5686 5683 5680 5678 5677 5677 5676 5675 5675 5675 5675 5673 5673 5673 5672 5671 5671 5670 5671 5672 5674
5736 5730 5726 5720 5720 5716 5711 5703 5704 5707 5708 5708 5710 5711 5713 5714 5714 5715 5714 5712 5709 5705 5702 5699 5695 5692 5689 5685 5681 5677 5674 5672 5670 5669 5668 5668 5668 5667 5667 5666 5666 5665 5664 5663 5663 5663 5662 5662 5665
5731 5741 5735 5724 5709 5693 5698 5684 5697 5700 5702 5707 5710 5711 5713 5715 5716 5715 5713 5711 5709 5707 5703 5699 5695 5690 5686 5681 5677 5672 5667 5664 5662 5660 5660 5660 5660 5660 5660 5659 5658 5657 5656 5656 5655 5656 5655 5655 5655
5735 5739 5730 5718 5703 5692 5690 5683 5689 5700 5701 5707 5713 5715 5717 5719 5718 5717 5716 5713 5711 5708 5703 5699 5693 5688 5683 5677 5672 5667 5663 5659 5657 5655 5653 5653 5652 5652 5652 5651 5650 5649 5648 5648 5647 5647 5647 5647 5648
5742 5731 5718 5704 5694 5682 5684 5679 5684 5697 5706 5712 5718 5721 5723 5723 5722 5720 5719 5715 5711 5707 5702 5696 5690 5684 5679 5673 5668 5663 5659 5655 5652 5650 5648 5646 5645 5645 5644 5644 5642 5641 5640 5639 5639 5639 5639 5639 5640
5736 5712 5689 5685 5673 5675 5685 5680 5687 5712 5719 5719 5721 5723 5726 5725 5722 5719 5716 5712 5707 5703 5698 5691 5685 5679 5674 5670 5665 5660 5656 5652 5649 5646 5643 5641 5639 5638 5637 5636 5634 5632 5631 5631 5630 5629 5630 5631 5632
5730 5717 5691 5680 5673 5675 5683 5680 5700 5724 5728 5727 5727 5727 5726 5724 5720 5718 5714 5710 5705 5700 5694 5688 5681 5676 5671 5667 5662 5658 5654 5650 5646 5643 5640 5637 5634 5632 5631 5628 5626 5624 5623 5622 5620 5620 5620 5621 5622
5727 5715 5710 5686 5679 5674 5680 5691 5710 5728 5727 5727 5726 5725 5723 5721 5719 5716 5712 5707 5701 5696 5690 5684 5678 5673 5669 5665 5660 5656 5652 5648 5644 5641 5637 5634 5631 5628 5626 5622 5619 5616 5614 5612 5611 5610 5610 5611 5612
5740 5717 5697 5684 5672 5671 5683 5687 5693 5715 5721 5724 5723 5722 5720 5718 5716 5713 5708 5702 5696 5691 5686 5681 5675 5670 5667 5663 5658 5655 5651 5647 5643 5638 5634 5631 5627 5623 5619 5616 5612 5609 5606 5604 5602 5600 5600 5601 5602
5731 5716 5696 5681 5682 5669 5666 5682 5716 5720 5724 5723 5723 5722 5718 5714 5712 5707 5702 5697 5691 5686 5681 5676 5672 5668 5664 5661 5657 5652 5648 5644 5639 5635 5631 5627 5622 5618 5614 5610 5606 5602 5599 5596 5594 5592 5591 5592 5593
5743 5730 5705 5695 5685 5674 5670 5686 5730 5726 5726 5724 5722 5720 5716 5712 5708 5702 5696 5691 5686 5682 5678 5673 5670 5666 5663 5659 5654 5650 5645 5640 5635 5631 5627 5622 5617 5613 5608 5604 5600 5596 5593 5590 5587 5585 5585 5584 5584